Humidity-temperature Sensor

Selected Measurement Type: Air Temperature

 
Air Temperature [°C]     6 entries per hour
Showing data from 8/23/2016 (00:00:00 Z) to 8/22/2016 (00:01:00 Z)
Previous Next [ Day | 3-Days | 7-Days ]
First Last
Prev [ Day | 3-Days | 7-Days ] Next
First Last

Start Time:     :
End Time:     :     
Time (in GMT) :00 :50 :40 :30 :20 :10
Previous Next [ Day | 3-Days | 7-Days ]
First Last
Prev [ Day | 3-Days | 7-Days ] Next
First Last


123 => good data
MM => data is determined as missing
-- => data not received/configured
Back to Top Back to Top
8/23/2016 00:00 to 23:10 20.41 20.42 20.48 20.47 20.46 20.51
8/22/2016 23:00 to 22:10 20.44 20.40 20.43 20.41 20.43 20.37
8/22/2016 22:00 to 21:10 20.40 20.37 20.33 20.30 20.25 20.25
8/22/2016 21:00 to 20:10 20.24 20.20 20.16 20.14 20.09 20.11
8/22/2016 20:00 to 19:10 20.06 20.06 20.05 20.02 20.01 19.96
8/22/2016 19:00 to 18:10 19.96 19.95 19.98 19.98 19.97 19.99
8/22/2016 18:00 to 17:10 19.96 19.93 19.88 19.88 19.92 19.93
8/22/2016 17:00 to 16:10 19.98 19.97 19.90 19.95 19.94 19.90
8/22/2016 16:00 to 15:10 19.95 19.97 19.91 19.95 19.93 19.94
8/22/2016 15:00 to 14:10 19.95 19.97 19.98 19.98 19.95 19.95
8/22/2016 14:00 to 13:10 19.94 19.94 19.95 19.95 19.92 19.88
8/22/2016 13:00 to 12:10 19.80 19.69 19.61 19.55 19.55 19.56
8/22/2016 12:00 to 11:10 19.56 19.56 19.58 19.58 19.60 19.60
8/22/2016 11:00 to 10:10 19.61 19.64 19.64 19.65 19.66 19.68
8/22/2016 10:00 to 9:10 19.71 19.76 19.75 19.77 19.76 19.79
8/22/2016 09:00 to 8:10 19.80 19.83 19.84 19.85 19.89 19.91
8/22/2016 08:00 to 7:10 19.96 19.95 19.97 19.97 19.98 20.01
8/22/2016 07:00 to 6:10 20.03 20.04 20.06 20.07 20.09 20.11
8/22/2016 06:00 to 5:10 20.10 20.04 20.07 20.07 20.11 20.15
8/22/2016 05:00 to 4:10 20.22 20.26 20.29 20.30 20.36 20.36
8/22/2016 04:00 to 3:10 20.33 20.37 20.36 20.40 20.40 20.33
8/22/2016 03:00 to 2:10 20.21 20.21 20.22 20.22 20.22 20.26
8/22/2016 02:00 to 1:10 20.23 20.27 20.26 20.29 20.29 20.32
8/22/2016 01:00 to 0:10 20.28 20.30 20.31 20.33 20.42 20.44